www.pogodaiklimat.ru
ПОГОДА в Галлапе
Время
и дата
12:53 29.11
13:53 29.11
14:53 29.11
15:53 29.11
16:53 29.11
17:53 29.11
18:53 29.11
19:53 29.11
20:53 29.11
21:53 29.11
22:53 29.11
23:53 29.11
00:53 30.11
01:53 30.11
02:53 30.11
03:53 30.11
04:53 30.11
05:53 30.11
06:53 30.11
07:36 30.11
07:41 30.11
07:53 30.11
08:53 30.11
09:53 30.11
10:53 30.11
11:53 30.11
12:53 30.11
13:53 30.11
14:53 30.11
15:53 30.11
16:53 30.12
17:53 30.11
18:53 30.11
19:53 30.11
20:53 30.11
21:53 30.11
22:53 30.11
23:53 30.11
00:53 01.12
01:53 01.12
02:53 01.12
03:53 01.12
04:53 01.12
05:53 01.12
06:53 01.12
07:53 01.12
08:53 01.12
09:53 01.12
Ветер
(напр.,м/с)
Видим. Явления Облачность Т
(С)
Тd
(С)
f
(%)
Тe
(С)
Тes
(С)
Комфортность P
(гПа)
Po
(гПа)
Тmin
(С)
Tmax
(С)
R
(мм)
R24
(мм)
S
(см)
З 11
{17}
16 км ясно +7.8 -8.9 30 +3 +3 1010.1 797.7
З 10
{13}
16 км 5/5 1950 м +8.3 -8.3 30 +4 +4 1010.6 797.9
З 8 16 км ясно +8.3 -10.0 26 +5 +5 1011.5 798.7
З 8
{12}
16 км ясно +7.2 -10.6 27 +3 +4 1013.4 799.3
З 5 16 км ясно +5.0 -11.7 29 +1 +2 1014.7 800.1 +5.0 +8.3
штиль 0 16 км ясно -0.6 -10.0 49 -1 -1 1019.1 801.1
ЮВ 2 16 км ясно -3.3 -10.6 57 -7 -7 1021.3 801.7
штиль 0 16 км ясно -6.1 -11.7 65 -7 -7 1023.7 802.7
штиль 0 16 км ясно -6.7 -11.1 71 -7 -7 1023.4 803.2
штиль 0 16 км ясно -9.4 -12.8 76 -10 -10 1024.3 803.5
штиль 0 16 км ясно -8.3 -13.3 67 -9 -9 1024.0 804.0 -9.4 +5.0
штиль 0 16 км ясно -10.0 -14.4 70 -10 -10 1024.5 804.6
штиль 0 16 км ясно -10.0 -12.8 80 -10 -10 1024.7 804.6
штиль 0 16 км ясно -10.6 -13.3 80 -11 -11 1024.8 804.6
штиль 0 16 км ясно -11.1 -14.4 77 -11 -11 1024.8 804.6
штиль 0 16 км ясно -12.2 -15.6 76 -12 -12 1026.3 805.1
СВ 2 16 км ясно -11.1 -14.4 77 -16 -16 1026.5 804.8 -12.8 -8.3
СВ 2 16 км ясно -10.0 -13.9 73 -14 -14 1028.7 804.8
штиль 0 16 км ясно -12.2 -14.4 84 -12 -12 1031.9 805.4
штиль 0 2 км мгла ясно -11.1 -14.4 77 -11 -11 805.4
СВ 2 8 км мгла ясно -10.0 -13.9 73 -14 -14 805.4
штиль 0 16 км ясно -9.4 -13.9 70 -10 -10 1032.0 805.4
СВ 2 16 км ясно -3.3 -11.1 55 -7 -7 1029.4 805.4
штиль 0 16 км ясно +0.6 -10.0 45 0 +3 1028.6 805.1
штиль 0 16 км ясно +4.4 -7.8 41 +4 +9 1025.3 804.6 -12.2 +4.4
З 2 16 км ясно +8.3 -7.2 33 +7 +13 1022.6 803.2
З 3 16 км ясно +10.0 -7.8 28 +9 +14 1020.7 802.4
штиль 0 16 км ясно +11.1 -8.9 24 +11 +19 1019.3 801.7
СЗ 3 16 км ясно +12.2 -9.4 21 +11 +15 1018.9 801.4
ЮЗ 4 16 км ясно +12.2 -11.7 18 +11 +13 1018.9 800.9
ЮЗ 3 16 км ясно +8.3 -11.7 23 +7 +7 1020.3 801.4 +4.4 +12.8
Ю 2 16 км ясно +2.8 -12.2 32 +1 +1 1023.2 801.9
штиль 0 16 км ясно +0.6 -12.2 38 0 0 1025.8 802.2
В 2 16 км ясно -3.9 -12.8 50 -7 -7 1027.2 802.7
СВ 3 16 км ясно -2.8 -12.2 48 -7 -7 1023.8 802.7
СВ 3 16 км ясно -4.4 -12.8 52 -9 -9 1023.1 803.0
СВ 2 16 км ясно -3.3 -11.1 55 -7 -7 1021.1 803.0 -5.6 +8.3
В 2 16 км ясно -5.6 -11.1 65 -10 -10 1019.8 802.7
СВ 2 16 км ясно -5.0 -11.1 62 -9 -9 1018.8 802.7
В 2 16 км ясно -7.2 -11.7 70 -11 -11 1019.1 802.4
штиль 0 16 км ясно -6.7 -11.1 71 -7 -7 1018.5 802.4
штиль 0 16 км ясно -9.4 -13.9 70 -10 -10 1019.4 802.4
СВ 2 16 км ясно -8.9 -12.8 73 -13 -13 1020.8 802.4 -10.0 -3.3
штиль 0 16 км ясно -8.9 -12.2 77 -9 -9 1023.4 802.4
штиль 0 16 км ясно -8.9 -11.7 80 -9 -9 1024.8 802.7
штиль 0 16 км ясно -5.6 -10.0 71 -6 -6 1025.4 802.7
штиль 0 16 км ясно +0.6 -7.2 56 0 +1 1022.7 803.0
З 2 16 км ясно +6.1 -5.0 45 +4 +6 1020.7 803.0
Местоположение метеостанции Gallup Municipal Airport: широта 35.5111 долгота -108.7894 высота над уровнем моря 1973 м.
В архиве по умолчанию представлена погода в Галлапе за последние 1-2 суток. Обновление информации о фактической погоде в базе происходит ежечасно! Архивные данные за месяц целиком и за предыдущие месяцы Вы можете получить, выбрав интересующий диапазон дат из раскрывающегося списка и нажав кнопку "Ввод!".
Внимание! Архив погоды МЕТАР в базе сайта по станциям, не включенным в климатический монитор, хранится не более 60 дней. Нет смысла пытаться выбрать более раннюю дату.
*Определитесь, кто Вы:
Внимание! Время в таблицах - местное (без учета летнего времени). Для получения всемирного времени необходимо вычесть поправку, которая равна -7 ч.
Смотрите также архив погоды в соседних городах и на ближайших метеорологических станциях:
Партнеры нашего сайта:      
Пояснения к столбцам:
  • Ветер - указаны скорость ветра в м/с - средняя за 10 мин, порывы в срок и между сроками (в фигурных скобках) и направление, откуда дует ветер: С - северный,
  • СВ - северо-восточный, В - восточный, ЮВ - юго-восточный, Ю - южный, ЮЗ - юго-западный, З - западный, СЗ - северо-западный.
  • Видимость - горизонтальная дальность видимости в метрах или километрах. При видимости от 1 до 10 км при отсутствии осадков обычно наблюдается дымка, при ухудшении видимости до 1 км и менее - туман. В сухую погоду видимость может ухудшаться дымом, пылью или мглою.
  • Явления - указаны атмосферные явления, наблюдавшиеся в срок или в последний час перед сроком; фигурными скобками обозначены явления, наблюдавшиеся между сроками (за 1-3 часа до срока); квадратными скобками обозначены град или гололедные отложения с указанием их диаметра в мм.
  • Облачность - указаны через наклонную черту общая и нижняя облачность в баллах и высота нижней границы облаков в метрах; квадратными скобками обозначены формы облаков: Ci - перистые, Cs - перисто-слоистые, Cc - перисто-кучевые, Ac - высококучевые, As - высокослоистые, Sc - слоисто-кучевые, Ns - слоисто-дождевые, Cu - кучевые, Cb - кучево-дождевые. Подробнее классификацию облаков см. в Атласе облаков (PDF).
  • T - Температура воздуха - температура, измеренная на высоте 2 м над землей.
  • Td - Температура точки росы - температура, при понижении до которой содержащийся в воздухе водяной пар достигнет насыщения.
  • f - Относительная влажность воздуха - влажноcть воздуха, измеренная на высоте 2 м над землей.
  • Te - Эффективная температура - температура, которую ощущает одетый по сезону человек в тени. Характеристика душности погоды. При расчете учитывается влияние влажности воздуха и скорости ветра на теплоощущения человека.
  • Tes - Эффективная температура на солнце - температура, которую ощущает человек, с поправкой на солнечный нагрев. Характеристика знойности погоды. Зависит от высоты солнца над горизонтом, облачности и скорости ветра. Ночью, в пасмурную погоду, а также при ветре 12 м/с и более поправка равна нулю.
  • P - Атмосферное давление - приведенное к уровню моря атмосферное давление.
  • Po - Атмосферное давление - измеренное на уровне метеостанции атмосферное давление.
  • Tmin - Минимальная температура - минимум температуры воздуха на высоте 2 м над землей.
  • Tmax - Максимальная температура - максимум температуры воздуха на высоте 2 м над землей.
  • R - Количество осадков - Количество выпавших осадков за период времени, мм. При наведении курсора мыши на число - период времени, за который выпало указанное количество осадков.
  • R24 - Количество осадков - Количество выпавших осадков за 24 часа, мм.
  • S - Снежный покров - Высота снежного покрова, см. При наведении курсора мыши на число - состояние снежного покрова и степень покрытия местности в баллах.